Namest Nad Oslav, Czech Republic

11:28 PM CEST on July 26, 2016 (GMT +0200)
Namest

Weather History for LKNA - January, 2014

Change the Weather History Date:

Sunday, January 5, 2014

  Actual Average Record
Temperature  
Mean Temperature 40 °F -  
Max Temperature 43 °F - - ()
Min Temperature 38 °F - - ()
Degree Days  
Heating Degree Days 24    
Moisture  
Dew Point 41 °F    
Average Humidity 98    
Maximum Humidity 100    
Minimum Humidity 91    
Precipitation  
Precipitation 0.02 in - - ()
Sea Level Pressure  
Sea Level Pressure 29.76 in    
Wind  
Wind Speed 9 mph ()    
Max Wind Speed 18 mph    
Max Gust Speed -    
Visibility 3.1 miles    
Events Fog , Rain    
T = Trace of Precipitation, MM = Missing Value Source: Averaged Metar Reports

Daily Weather History Graph

Daily Weather History Graph

Search for Another Location

Airport or City:

Trip Planner

Search our weather history database for the weather conditions in past years. The results will help you decide how hot, cold, wet, or windy it might be!

Date:

Astronomy

Jan. 05, 2014 Rise Set
Actual Time 7:49 AM CET 4:12 PM CET
Civil Twilight 7:12 AM CET 4:49 PM CET
Nautical Twilight 6:32 AM CET 5:29 PM CET
Astronomical Twilight 5:53 AM CET 6:08 PM CET
Moon 9:54 AM CET (1/5) 9:49 PM CET (1/5)
Length of Visible Light 9h 36m
Length of Day
8h 22m
Waxing Crescent, 22% of the Moon is Illuminated
Jan 5
Waxing Crescent
Jan 8
First Quarter
Jan 16
Full
Jan 24
Last Quarter
Jan 30
New

Hourly Weather History & Observations

Time (CET) Temp. Windchill Dew Point Humidity Pressure Visibility Wind Dir Wind Speed Gust Speed Precip Events Conditions
12:00 AM 43 °F - 43 °F 98% 29.67 in 3 mi SE 17.9 mph - - Rain Light Rain
12:00 AM 42.8 °F 34.5 °F 42.8 °F 100% 29.62 in 3.1 mi SE 18.4 mph - N/A Rain Light Rain
1:00 AM 43 °F - 43 °F 98% 29.67 in 3 mi SE 13.4 mph - - Rain Light Rain
1:00 AM 42.8 °F 35.8 °F 42.8 °F 100% 29.62 in 3.1 mi SE 13.8 mph - N/A Rain Light Rain
2:00 AM 43 °F - 42 °F 96% 29.67 in 4 mi SSE 11.2 mph - - Rain Light Rain
2:00 AM 42.8 °F 37.0 °F 42.8 °F 100% 29.62 in 3.7 mi SSE 10.4 mph - N/A   Mostly Cloudy
3:00 AM 44 °F - 43 °F 93% 29.66 in 5 mi SSE 13.4 mph - -   Mist
3:00 AM 42.8 °F 35.8 °F 42.8 °F 100% 29.62 in 5.0 mi SSE 13.8 mph - N/A   Mostly Cloudy
4:00 AM 41 °F - 41 °F 100% 29.66 in 5 mi SE 11.2 mph - -   Mist
4:00 AM 41.0 °F 34.7 °F 41.0 °F 100% 29.62 in 5.0 mi SE 10.4 mph - N/A   Scattered Clouds
5:00 AM 40 °F - 39 °F 96% 29.66 in 4 mi SE 11.2 mph - -   Mist
5:00 AM 39.2 °F 32.0 °F 39.2 °F 100% 29.62 in 3.7 mi SE 11.5 mph - N/A   Scattered Clouds
5:36 AM 39.2 °F 33.0 °F 39.2 °F 100% 29.59 in 0.1 mi SE 9.2 mph - N/A Fog Fog
6:00 AM 40 °F - 40 °F 98% 29.65 in 0 mi SE 8.9 mph - - Fog Heavy Fog
6:00 AM 39.2 °F 33.0 °F 39.2 °F 100% 29.59 in 0.1 mi SE 9.2 mph - N/A Fog Fog
7:00 AM 41 °F - 40 °F 96% 29.67 in 0 mi ESE 6.7 mph - - Fog Heavy Fog
7:00 AM 41.0 °F 37.1 °F 41.0 °F 100% 29.62 in 0.1 mi ESE 5.8 mph - N/A Fog Fog
8:00 AM 41 °F - 41 °F 100% 29.68 in 0 mi ENE 4.5 mph - - Fog Heavy Fog
8:00 AM 41.0 °F 38.0 °F 41.0 °F 100% 29.62 in 0.1 mi ENE 4.6 mph - N/A Fog Fog
9:00 AM 42 °F - 42 °F 99% 29.70 in 0 mi East 4.5 mph - - Fog Heavy Fog
9:00 AM 42.8 °F 40.1 °F 41.0 °F 93% 29.65 in 0.2 mi East 4.6 mph - N/A Fog Fog
10:00 AM 43 °F - 42 °F 97% 29.71 in 0 mi East 2.2 mph - - Fog Heavy Fog
10:00 AM 42.8 °F 41.1 °F 42.8 °F 100% 29.68 in 0.3 mi East 3.5 mph - N/A Fog Fog
11:00 AM 43 °F - 43 °F 98% 29.73 in 0 mi NNW 2.2 mph - - Fog Heavy Fog
11:00 AM 42.8 °F - 42.8 °F 100% 29.68 in 0.4 mi NNW 2.3 mph - N/A Fog Fog
12:00 PM 43 °F - 43 °F 100% 29.74 in 0 mi WNW 6.7 mph - - Fog Heavy Fog
12:00 PM 42.8 °F 39.3 °F 42.8 °F 100% 29.71 in 0.2 mi WNW 5.8 mph - N/A Fog Fog
1:00 PM 43 °F - 43 °F 100% 29.77 in 0 mi West 2.2 mph - - Rain Light Drizzle
1:00 PM 42.8 °F 41.1 °F 42.8 °F 100% 29.74 in 0.2 mi WNW 3.5 mph - N/A Fog Light Drizzle
1:27 PM 42.8 °F 41.1 °F 42.8 °F 100% 29.74 in 1.0 mi WNW 3.5 mph - N/A   Overcast
2:00 PM 44 °F - 43 °F 96% 29.78 in 2 mi WNW 4.5 mph - - Fog Light Fog
2:00 PM 42.8 °F 40.1 °F 42.8 °F 100% 29.74 in 2.2 mi WNW 4.6 mph - N/A   Mostly Cloudy
3:00 PM 43 °F - 42 °F 97% 29.83 in 3 mi West 4.5 mph - -   Mist
3:00 PM 42.8 °F 39.3 °F 42.8 °F 100% 29.77 in 2.8 mi West 5.8 mph - N/A   Mostly Cloudy
4:00 PM 43 °F - 42 °F 97% 29.84 in 3 mi WNW 4.5 mph - -   Mist
4:00 PM 42.8 °F 40.1 °F 42.8 °F 100% 29.80 in 3.1 mi West 4.6 mph - N/A   Mostly Cloudy
5:00 PM 42 °F - 42 °F 99% 29.88 in 4 mi West 6.7 mph - -   Mist
5:00 PM 42.8 °F 39.3 °F 42.8 °F 100% 29.83 in 4.3 mi West 5.8 mph - N/A   Mostly Cloudy
6:00 PM 42 °F - 40 °F 92% 29.92 in 6 mi WNW 11.2 mph - - Rain Light Rain
6:00 PM 41.0 °F 34.3 °F 41.0 °F 100% 29.86 in 5.6 mi WNW 11.5 mph - N/A Rain Light Rain
7:00 PM 41 °F - 40 °F 95% 29.96 in 6 mi West 8.9 mph - - Rain Light Rain
7:00 PM 41.0 °F 35.2 °F 41.0 °F 100% 29.92 in 5.6 mi West 9.2 mph - N/A Rain Light Rain
8:00 PM 40 °F - 40 °F 100% 29.96 in 7 mi WNW 8.9 mph - - Rain Light Rain
8:00 PM 41.0 °F 34.7 °F 39.2 °F 93% 29.92 in 6.2 mi WNW 10.4 mph - N/A   Overcast
9:00 PM 40 °F - 39 °F 97% 29.99 in 9 mi WNW 11.2 mph - - Rain Light Rain
9:00 PM 41.0 °F 34.3 °F 39.2 °F 93% 29.92 in 6.2 mi WNW 11.5 mph - N/A Rain Light Rain
10:00 PM 40 °F - 39 °F 95% 30.02 in 9 mi WNW 8.9 mph - - Rain Light Rain
10:00 PM 39.2 °F 33.0 °F 39.2 °F 100% 29.98 in 6.2 mi WNW 9.2 mph - N/A Rain Light Rain
11:00 PM 40 °F - 38 °F 91% 30.03 in 9 mi WNW 4.5 mph - - Rain Light Rain
11:00 PM 39.2 °F 35.9 °F 39.2 °F 100% 29.98 in 6.2 mi WNW 4.6 mph - N/A   Mostly Cloudy